Location: Newark
(49.8900°N, 17.8822°E)
Time: 20:23:55
(UTC+00:00)

Envisat - Visible Passes

Search period start: 25 August 2019 00:00
Search period end: 04 September 2019 00:00
Orbit: 764 x 766 km, 98.1° (Epoch: 25 August)

Date Brightness Start Highest point End Pass type
(mag) Time Alt. Az. Time Alt. Az. Time Alt. Az.
26 Aug 5.8 18:15:12 10° SW 18:18:49 19° W 18:22:26 10° NW visible
28 Aug 6.2 18:42:59 10° WSW 18:44:42 12° W 18:46:25 10° WNW visible
31 Aug 6.0 18:30:31 10° WSW 18:33:16 14° W 18:36:02 10° NW visible
03 Sep 5.9 18:18:28 10° SW 18:21:52 18° W 18:25:18 10° NW visible
